PTDAP SNIO-SNIB

Flight info

Callsign PTDAP
Flight time 1h 12m
Altitude 4500
Route DCT 112132S0384727W 113747S0390815W 114917S0392250W 120756S0394658W 122034S0400334W DCT
Aircraft P28R/L-SDF/C

Departure

Time 2026-04-25 19:43
Airport Cipó Airport (SNIO)

Arrival

Time 2026-04-25 20:55
Airport Itaberaba Airport (SNIB)
Time Latitude Longitude Altitude Speed Heading
2026-04-25 19:26 -11.12405 -38.49293 750 ft 0 kts 128°
2026-04-25 19:28 -11.12382 -38.49275 750 ft 0 kts 128°
2026-04-25 19:37 -11.12379 -38.49265 751 ft 3 kts 22°
2026-04-25 19:37 -11.12367 -38.49306 752 ft 10 kts 336°
2026-04-25 19:37 -11.12346 -38.49301 751 ft 0 kts 22°
2026-04-25 19:41 -11.12328 -38.49294 750 ft 8 kts 21°
2026-04-25 19:42 -11.12365 -38.49130 749 ft 44 kts 110°
2026-04-25 19:42 -11.12509 -38.48712 788 ft 74 kts 111°
2026-04-25 19:42 -11.12712 -38.48190 965 ft 83 kts 117°
2026-04-25 19:42 -11.13022 -38.47645 1137 ft 91 kts 123°
2026-04-25 19:43 -11.13078 -38.47051 1410 ft 95 kts 69°
2026-04-25 19:43 -11.12380 -38.46832 1387 ft 127 kts 350°
2026-04-25 19:43 -11.11577 -38.47144 1630 ft 127 kts 334°
2026-04-25 19:43 -11.11025 -38.47893 1737 ft 138 kts 295°
2026-04-25 19:44 -11.10752 -38.48774 1889 ft 120 kts 260°
2026-04-25 19:44 -11.11068 -38.49563 1962 ft 120 kts 232°
2026-04-25 19:44 -11.11478 -38.50289 2187 ft 119 kts 237°
2026-04-25 19:44 -11.11810 -38.51059 2345 ft 120 kts 238°
2026-04-25 19:45 -11.12191 -38.51802 2513 ft 123 kts 235°
2026-04-25 19:45 -11.12606 -38.52574 2666 ft 124 kts 234°
2026-04-25 19:45 -11.13026 -38.53343 2807 ft 125 kts 234°
2026-04-25 19:45 -11.13448 -38.54099 2984 ft 122 kts 234°
2026-04-25 19:46 -11.13884 -38.54861 3087 ft 125 kts 233°
2026-04-25 19:46 -11.14314 -38.55654 3183 ft 129 kts 233°
2026-04-25 19:46 -11.14717 -38.56436 3395 ft 122 kts 234°
2026-04-25 19:46 -11.15132 -38.57205 3424 ft 129 kts 234°
2026-04-25 19:47 -11.15571 -38.57997 3558 ft 126 kts 233°
2026-04-25 19:47 -11.15987 -38.58775 3717 ft 123 kts 234°
2026-04-25 19:47 -11.16418 -38.59550 3788 ft 128 kts 234°
2026-04-25 19:47 -11.16863 -38.60345 3882 ft 132 kts 233°
2026-04-25 19:48 -11.17306 -38.61132 4039 ft 121 kts 234°
2026-04-25 19:48 -11.17722 -38.61875 4036 ft 125 kts 234°
2026-04-25 19:48 -11.18173 -38.62661 3952 ft 132 kts 233°
2026-04-25 19:48 -11.18652 -38.63492 3890 ft 136 kts 234°
2026-04-25 19:49 -11.19147 -38.64340 3763 ft 143 kts 234°
2026-04-25 19:49 -11.19479 -38.64918 3764 ft 137 kts 234°
2026-04-25 19:49 -11.20103 -38.66025 3665 ft 138 kts 234°
2026-04-25 19:49 -11.20591 -38.66868 3641 ft 135 kts 234°
2026-04-25 19:50 -11.21544 -38.68521 3552 ft 132 kts 234°
2026-04-25 19:50 -11.22023 -38.69317 3494 ft 134 kts 234°
2026-04-25 19:50 -11.22531 -38.70125 3439 ft 137 kts 232°
2026-04-25 19:51 -11.23028 -38.70924 3484 ft 133 kts 231°
2026-04-25 19:51 -11.23544 -38.71717 3399 ft 135 kts 231°
2026-04-25 19:51 -11.24076 -38.72519 3344 ft 137 kts 231°
2026-04-25 19:51 -11.24586 -38.73315 3385 ft 132 kts 232°
2026-04-25 19:52 -11.25099 -38.74098 3343 ft 134 kts 231°
2026-04-25 19:52 -11.25643 -38.74875 3267 ft 136 kts 229°
2026-04-25 19:52 -11.26196 -38.75658 3231 ft 134 kts 228°
2026-04-25 19:52 -11.26741 -38.76420 3217 ft 131 kts 228°
2026-04-25 19:53 -11.27270 -38.77160 3206 ft 128 kts 227°
2026-04-25 19:53 -11.27822 -38.77899 3101 ft 135 kts 227°
2026-04-25 19:53 -11.28393 -38.78670 3033 ft 136 kts 227°
2026-04-25 19:53 -11.28957 -38.79443 2969 ft 134 kts 228°
2026-04-25 19:54 -11.29514 -38.80201 2891 ft 136 kts 228°
2026-04-25 19:54 -11.30083 -38.80989 2826 ft 138 kts 228°
2026-04-25 19:54 -11.30642 -38.81764 2831 ft 133 kts 228°
2026-04-25 19:54 -11.31009 -38.82269 2759 ft 137 kts 228°
2026-04-25 19:55 -11.31547 -38.83491 2634 ft 139 kts 246°
2026-04-25 19:55 -11.31821 -38.84417 2594 ft 139 kts 247°
2026-04-25 19:55 -11.32081 -38.85399 2441 ft 146 kts 249°
2026-04-25 19:55 -11.32322 -38.86366 2464 ft 139 kts 249°
2026-04-25 19:56 -11.32569 -38.87329 2483 ft 138 kts 250°
2026-04-25 19:56 -11.32820 -38.88255 2480 ft 139 kts 249°
2026-04-25 19:56 -11.33073 -38.89206 2545 ft 138 kts 249°
2026-04-25 19:56 -11.33321 -38.90174 2507 ft 143 kts 249°
2026-04-25 19:57 -11.33575 -38.91138 2604 ft 138 kts 249°
2026-04-25 19:57 -11.33830 -38.92080 2682 ft 138 kts 249°
2026-04-25 19:57 -11.34095 -38.93015 2760 ft 138 kts 248°
2026-04-25 19:57 -11.34360 -38.93957 2871 ft 137 kts 249°
2026-04-25 19:58 -11.34617 -38.94880 2985 ft 137 kts 249°
2026-04-25 19:58 -11.34891 -38.95814 3113 ft 135 kts 249°
2026-04-25 19:58 -11.35199 -38.96710 3261 ft 134 kts 241°
2026-04-25 19:58 -11.35718 -38.97485 3387 ft 130 kts 227°
2026-04-25 19:59 -11.36369 -38.98101 3437 ft 128 kts 203°
2026-04-25 19:59 -11.37198 -38.97921 3317 ft 131 kts 139°
2026-04-25 19:59 -11.37907 -38.97562 3654 ft 115 kts 171°
2026-04-25 19:59 -11.38661 -38.97884 3782 ft 123 kts 213°
2026-04-25 20:00 -11.39284 -38.98466 3948 ft 120 kts 216°
2026-04-25 20:00 -11.39495 -38.98658 3979 ft 122 kts 216°
2026-04-25 20:00 -11.40549 -38.99612 4214 ft 122 kts 216°
2026-04-25 20:00 -11.41194 -39.00200 4293 ft 126 kts 216°
2026-04-25 20:01 -11.42481 -39.01344 4608 ft 124 kts 216°
2026-04-25 20:01 -11.43121 -39.01925 4723 ft 124 kts 216°
2026-04-25 20:01 -11.43734 -39.02593 4709 ft 131 kts 223°
2026-04-25 20:02 -11.44307 -39.03279 4747 ft 133 kts 224°
2026-04-25 20:02 -11.44930 -39.04032 4624 ft 139 kts 225°
2026-04-25 20:02 -11.45541 -39.04784 4599 ft 137 kts 224°
2026-04-25 20:02 -11.46157 -39.05549 4499 ft 141 kts 225°
2026-04-25 20:03 -11.46767 -39.06312 4502 ft 138 kts 225°
2026-04-25 20:03 -11.47383 -39.07070 4479 ft 139 kts 225°
2026-04-25 20:03 -11.47987 -39.07824 4524 ft 135 kts 225°
2026-04-25 20:03 -11.48583 -39.08579 4444 ft 139 kts 225°
2026-04-25 20:04 -11.49195 -39.09348 4407 ft 139 kts 225°
2026-04-25 20:04 -11.49800 -39.10101 4457 ft 136 kts 225°
2026-04-25 20:04 -11.50415 -39.10855 4411 ft 139 kts 225°
2026-04-25 20:04 -11.51039 -39.11621 4372 ft 140 kts 225°
2026-04-25 20:05 -11.51644 -39.12364 4386 ft 138 kts 225°
2026-04-25 20:05 -11.52249 -39.13107 4403 ft 135 kts 224°
2026-04-25 20:05 -11.52837 -39.13849 4413 ft 134 kts 225°
2026-04-25 20:05 -11.53366 -39.14513 4449 ft 132 kts 225°
2026-04-25 20:06 -11.53961 -39.15247 4420 ft 136 kts 225°
2026-04-25 20:06 -11.54560 -39.15989 4440 ft 133 kts 225°
2026-04-25 20:06 -11.55148 -39.16702 4481 ft 132 kts 225°
2026-04-25 20:06 -11.55736 -39.17438 4472 ft 135 kts 225°
2026-04-25 20:07 -11.56324 -39.18172 4546 ft 131 kts 225°
2026-04-25 20:07 -11.56900 -39.18899 4547 ft 135 kts 225°
2026-04-25 20:07 -11.57508 -39.19646 4586 ft 135 kts 226°
2026-04-25 20:07 -11.58080 -39.20358 4730 ft 127 kts 225°
2026-04-25 20:08 -11.58657 -39.21081 4667 ft 135 kts 225°
2026-04-25 20:08 -11.59257 -39.21825 4701 ft 135 kts 225°
2026-04-25 20:08 -11.59739 -39.22629 4737 ft 136 kts 239°
2026-04-25 20:08 -11.60134 -39.23495 4777 ft 135 kts 241°
2026-04-25 20:09 -11.60515 -39.24385 4777 ft 137 kts 242°
2026-04-25 20:09 -11.60882 -39.25278 4804 ft 136 kts 242°
2026-04-25 20:09 -11.61247 -39.26181 4782 ft 139 kts 243°
2026-04-25 20:09 -11.61599 -39.27104 4776 ft 142 kts 247°
2026-04-25 20:10 -11.61627 -39.28144 4736 ft 147 kts 268°
2026-04-25 20:10 -11.61549 -39.29161 4800 ft 144 kts 271°
2026-04-25 20:10 -11.61457 -39.30188 4785 ft 145 kts 272°
2026-04-25 20:10 -11.61366 -39.31183 4809 ft 142 kts 272°
2026-04-25 20:11 -11.61471 -39.32186 4656 ft 146 kts 244°
2026-04-25 20:11 -11.62005 -39.33041 4617 ft 138 kts 224°
2026-04-25 20:11 -11.62710 -39.33660 4564 ft 132 kts 214°
2026-04-25 20:11 -11.63424 -39.34238 4501 ft 131 kts 213°
2026-04-25 20:12 -11.64069 -39.34890 4484 ft 130 kts 222°
2026-04-25 20:12 -11.64634 -39.35571 4327 ft 120 kts 223°
2026-04-25 20:12 -11.65160 -39.36192 4185 ft 109 kts 222°
2026-04-25 20:12 -11.65322 -39.36395 4124 ft 109 kts 224°
2026-04-25 20:13 -11.66114 -39.37348 3956 ft 101 kts 220°
2026-04-25 20:13 -11.66624 -39.37756 4105 ft 92 kts 202°
2026-04-25 20:13 -11.67146 -39.38193 4186 ft 103 kts 212°
2026-04-25 20:13 -11.67645 -39.38703 4310 ft 107 kts 215°
2026-04-25 20:14 -11.68204 -39.39214 4400 ft 112 kts 214°
2026-04-25 20:14 -11.68772 -39.39781 4502 ft 115 kts 218°
2026-04-25 20:14 -11.69369 -39.40375 4491 ft 127 kts 219°
2026-04-25 20:14 -11.69964 -39.41059 4505 ft 131 kts 224°
2026-04-25 20:15 -11.70554 -39.41779 4561 ft 130 kts 225°
2026-04-25 20:15 -11.71105 -39.42532 4497 ft 140 kts 228°
2026-04-25 20:15 -11.71721 -39.43328 4464 ft 141 kts 225°
2026-04-25 20:15 -11.72459 -39.43926 4485 ft 134 kts 208°
2026-04-25 20:16 -11.73234 -39.44443 4511 ft 133 kts 212°
2026-04-25 20:16 -11.73878 -39.45099 4486 ft 131 kts 220°
2026-04-25 20:16 -11.74505 -39.45755 4522 ft 126 kts 222°
2026-04-25 20:16 -11.75116 -39.46393 4494 ft 126 kts 217°
2026-04-25 20:17 -11.75777 -39.46977 4500 ft 125 kts 214°
2026-04-25 20:17 -11.76411 -39.47599 4493 ft 126 kts 218°
2026-04-25 20:17 -11.77044 -39.48203 4498 ft 125 kts 219°
2026-04-25 20:17 -11.77657 -39.48830 4504 ft 125 kts 219°
2026-04-25 20:18 -11.78281 -39.49461 4491 ft 127 kts 219°
2026-04-25 20:18 -11.78914 -39.50092 4496 ft 128 kts 218°
2026-04-25 20:18 -11.79551 -39.50726 4504 ft 128 kts 219°
2026-04-25 20:18 -11.80191 -39.51364 4517 ft 128 kts 219°
2026-04-25 20:19 -11.80834 -39.51979 4564 ft 126 kts 217°
2026-04-25 20:19 -11.81503 -39.52570 4545 ft 129 kts 218°
2026-04-25 20:19 -11.82110 -39.53244 4571 ft 127 kts 220°
2026-04-25 20:19 -11.82735 -39.53873 4558 ft 129 kts 219°
2026-04-25 20:20 -11.83369 -39.54520 4558 ft 131 kts 220°
2026-04-25 20:20 -11.84021 -39.55185 4571 ft 132 kts 219°
2026-04-25 20:20 -11.84675 -39.55870 4547 ft 135 kts 220°
2026-04-25 20:20 -11.85331 -39.56552 4585 ft 132 kts 221°
2026-04-25 20:21 -11.85988 -39.57203 4614 ft 134 kts 219°
2026-04-25 20:21 -11.86664 -39.57869 4610 ft 136 kts 218°
2026-04-25 20:21 -11.87344 -39.58542 4632 ft 136 kts 220°
2026-04-25 20:21 -11.87999 -39.59246 4649 ft 137 kts 222°
2026-04-25 20:22 -11.88640 -39.59955 4646 ft 138 kts 223°
2026-04-25 20:22 -11.88856 -39.60202 4636 ft 139 kts 223°
2026-04-25 20:22 -11.90019 -39.61375 4538 ft 142 kts 220°
2026-04-25 20:22 -11.90749 -39.62042 4523 ft 139 kts 213°
2026-04-25 20:23 -11.91567 -39.62539 4533 ft 135 kts 205°
2026-04-25 20:23 -11.92365 -39.63068 4504 ft 139 kts 210°
2026-04-25 20:23 -11.93133 -39.63654 4541 ft 136 kts 213°
2026-04-25 20:23 -11.93882 -39.64246 4491 ft 139 kts 213°
2026-04-25 20:24 -11.94649 -39.64840 4490 ft 135 kts 212°
2026-04-25 20:24 -11.95392 -39.65411 4506 ft 133 kts 213°
2026-04-25 20:24 -11.96123 -39.65987 4537 ft 132 kts 212°
2026-04-25 20:24 -11.96607 -39.66357 4559 ft 131 kts 212°
2026-04-25 20:25 -11.97356 -39.66938 4490 ft 138 kts 212°
2026-04-25 20:25 -11.98331 -39.67697 4616 ft 129 kts 210°
2026-04-25 20:25 -11.98824 -39.68081 4560 ft 135 kts 211°
2026-04-25 20:25 -11.99582 -39.68663 4555 ft 135 kts 212°
2026-04-25 20:26 -12.00326 -39.69245 4571 ft 134 kts 212°
2026-04-25 20:26 -12.01046 -39.69840 4599 ft 135 kts 214°
2026-04-25 20:26 -12.01763 -39.70449 4623 ft 134 kts 214°
2026-04-25 20:26 -12.02481 -39.71068 4603 ft 136 kts 215°
2026-04-25 20:27 -12.03201 -39.71699 4612 ft 136 kts 216°
2026-04-25 20:27 -12.03920 -39.72332 4580 ft 137 kts 216°
2026-04-25 20:27 -12.04648 -39.72955 4570 ft 136 kts 215°
2026-04-25 20:27 -12.05387 -39.73564 4575 ft 136 kts 214°
2026-04-25 20:28 -12.06139 -39.74154 4555 ft 137 kts 212°
2026-04-25 20:28 -12.06906 -39.74725 4550 ft 136 kts 211°
2026-04-25 20:28 -12.07676 -39.75282 4555 ft 135 kts 210°
2026-04-25 20:28 -12.08438 -39.75831 4549 ft 135 kts 210°
2026-04-25 20:29 -12.09207 -39.76380 4538 ft 135 kts 210°
2026-04-25 20:29 -12.09974 -39.76936 4519 ft 135 kts 210°
2026-04-25 20:29 -12.10743 -39.77494 4514 ft 136 kts 210°
2026-04-25 20:29 -12.11490 -39.78079 4519 ft 137 kts 217°
2026-04-25 20:30 -12.12086 -39.78882 4436 ft 142 kts 229°
2026-04-25 20:30 -12.12631 -39.79690 4495 ft 137 kts 231°
2026-04-25 20:30 -12.13184 -39.80503 4461 ft 140 kts 230°
2026-04-25 20:30 -12.13744 -39.81304 4505 ft 137 kts 230°
2026-04-25 20:31 -12.14295 -39.82089 4478 ft 139 kts 230°
2026-04-25 20:31 -12.14875 -39.82881 4480 ft 138 kts 227°
2026-04-25 20:31 -12.15504 -39.83604 4489 ft 135 kts 221°
2026-04-25 20:31 -12.16187 -39.84277 4423 ft 137 kts 219°
2026-04-25 20:32 -12.16892 -39.84931 4440 ft 134 kts 217°
2026-04-25 20:32 -12.17579 -39.85577 4396 ft 137 kts 219°
2026-04-25 20:32 -12.18257 -39.86284 4348 ft 139 kts 223°
2026-04-25 20:32 -12.18897 -39.87009 4371 ft 138 kts 226°
2026-04-25 20:33 -12.19505 -39.87790 4344 ft 141 kts 228°
2026-04-25 20:33 -12.20072 -39.88584 4381 ft 138 kts 230°
2026-04-25 20:33 -12.20630 -39.89384 4347 ft 141 kts 230°
2026-04-25 20:33 -12.21012 -39.89927 4380 ft 138 kts 229°
2026-04-25 20:34 -12.21753 -39.90985 4371 ft 139 kts 229°
2026-04-25 20:34 -12.22320 -39.91782 4378 ft 138 kts 226°
2026-04-25 20:34 -12.22954 -39.92529 4352 ft 139 kts 221°
2026-04-25 20:34 -12.23610 -39.93232 4406 ft 135 kts 220°
2026-04-25 20:35 -12.24283 -39.93923 4368 ft 139 kts 219°
2026-04-25 20:35 -12.24971 -39.94616 4402 ft 136 kts 219°
2026-04-25 20:35 -12.25639 -39.95291 4416 ft 137 kts 220°
2026-04-25 20:35 -12.26312 -39.95987 4417 ft 137 kts 220°
2026-04-25 20:36 -12.26978 -39.96681 4427 ft 137 kts 221°
2026-04-25 20:36 -12.27648 -39.97373 4415 ft 135 kts 221°
2026-04-25 20:36 -12.28290 -39.98052 4394 ft 136 kts 221°
2026-04-25 20:36 -12.28949 -39.98771 4362 ft 137 kts 223°
2026-04-25 20:37 -12.29567 -39.99477 4388 ft 135 kts 223°
2026-04-25 20:37 -12.30190 -40.00240 4296 ft 141 kts 226°
2026-04-25 20:37 -12.30799 -40.00990 4327 ft 136 kts 226°
2026-04-25 20:37 -12.31410 -40.01748 4308 ft 138 kts 226°
2026-04-25 20:38 -12.31999 -40.02498 4364 ft 134 kts 226°
2026-04-25 20:38 -12.32587 -40.03255 4322 ft 136 kts 227°
2026-04-25 20:38 -12.33172 -40.04027 4293 ft 140 kts 228°
2026-04-25 20:38 -12.33787 -40.04807 4273 ft 139 kts 226°
2026-04-25 20:39 -12.34407 -40.05538 4298 ft 137 kts 225°
2026-04-25 20:39 -12.35059 -40.06285 4231 ft 141 kts 224°
2026-04-25 20:39 -12.35700 -40.07015 4324 ft 135 kts 224°
2026-04-25 20:39 -12.36129 -40.07486 4289 ft 139 kts 223°
2026-04-25 20:40 -12.37052 -40.08371 4358 ft 133 kts 216°
2026-04-25 20:40 -12.37764 -40.08995 4274 ft 140 kts 215°
2026-04-25 20:40 -12.38513 -40.09617 4352 ft 134 kts 214°
2026-04-25 20:40 -12.39248 -40.10219 4289 ft 140 kts 213°
2026-04-25 20:41 -12.39994 -40.10869 4250 ft 143 kts 217°
2026-04-25 20:41 -12.40756 -40.11527 4193 ft 144 kts 216°
2026-04-25 20:41 -12.41534 -40.12166 4131 ft 146 kts 214°
2026-04-25 20:41 -12.42278 -40.12897 4004 ft 150 kts 225°
2026-04-25 20:42 -12.42953 -40.13727 3911 ft 151 kts 228°
2026-04-25 20:42 -12.43631 -40.14550 3840 ft 151 kts 225°
2026-04-25 20:42 -12.44320 -40.15355 3792 ft 150 kts 227°
2026-04-25 20:42 -12.44881 -40.16256 3703 ft 151 kts 238°
2026-04-25 20:43 -12.45350 -40.17218 3616 ft 150 kts 239°
2026-04-25 20:43 -12.45863 -40.18135 3587 ft 148 kts 238°
2026-04-25 20:43 -12.46354 -40.19078 3450 ft 152 kts 239°
2026-04-25 20:43 -12.46819 -40.20054 3359 ft 153 kts 241°
2026-04-25 20:44 -12.47301 -40.21010 3351 ft 144 kts 236°
2026-04-25 20:44 -12.47755 -40.21875 3233 ft 137 kts 245°
2026-04-25 20:44 -12.47889 -40.22855 2994 ft 143 kts 268°
2026-04-25 20:44 -12.47753 -40.23843 2836 ft 142 kts 282°
2026-04-25 20:45 -12.47423 -40.24793 2688 ft 141 kts 294°
2026-04-25 20:45 -12.47063 -40.25718 2566 ft 139 kts 289°
2026-04-25 20:45 -12.46858 -40.26692 2357 ft 142 kts 271°
2026-04-25 20:45 -12.47337 -40.27518 2111 ft 136 kts 207°
2026-04-25 20:46 -12.48174 -40.27452 1965 ft 123 kts 142°
2026-04-25 20:46 -12.48372 -40.26659 1850 ft 119 kts 76°
2026-04-25 20:46 -12.47952 -40.25988 1833 ft 114 kts 43°
2026-04-25 20:46 -12.47216 -40.25698 1819 ft 113 kts
2026-04-25 20:47 -12.46457 -40.25948 1636 ft 124 kts 327°
2026-04-25 20:47 -12.45957 -40.26656 1555 ft 123 kts 290°
2026-04-25 20:47 -12.45969 -40.27465 1631 ft 111 kts 245°
2026-04-25 20:47 -12.46481 -40.28077 1615 ft 113 kts 216°
2026-04-25 20:48 -12.47076 -40.28554 1682 ft 109 kts 215°
2026-04-25 20:48 -12.47695 -40.28998 1773 ft 109 kts 210°
2026-04-25 20:48 -12.48349 -40.29340 1897 ft 104 kts 199°
2026-04-25 20:48 -12.49038 -40.29508 1928 ft 105 kts 186°
2026-04-25 20:49 -12.49776 -40.29623 1943 ft 108 kts 183°
2026-04-25 20:49 -12.50482 -40.29682 2053 ft 98 kts 178°
2026-04-25 20:49 -12.51174 -40.29649 2054 ft 102 kts 168°
2026-04-25 20:49 -12.51882 -40.29641 2113 ft 101 kts 172°
2026-04-25 20:50 -12.52596 -40.29616 2161 ft 104 kts 169°
2026-04-25 20:50 -12.53320 -40.29890 2073 ft 124 kts 217°
2026-04-25 20:50 -12.53680 -40.30659 2104 ft 124 kts 262°
2026-04-25 20:50 -12.53427 -40.31505 2071 ft 125 kts 307°
2026-04-25 20:51 -12.52724 -40.31933 2065 ft 118 kts 354°
2026-04-25 20:51 -12.51976 -40.31724 2060 ft 108 kts 42°
2026-04-25 20:51 -12.51720 -40.31059 2031 ft 108 kts 92°
2026-04-25 20:51 -12.52130 -40.30424 2061 ft 111 kts 143°
2026-04-25 20:52 -12.52791 -40.30000 2063 ft 112 kts 136°
2026-04-25 20:52 -12.53109 -40.29582 2092 ft 108 kts 118°
2026-04-25 20:52 -12.53511 -40.28671 2155 ft 105 kts 112°
2026-04-25 20:52 -12.53759 -40.27995 2116 ft 96 kts 106°
2026-04-25 20:53 -12.53777 -40.27309 1870 ft 97 kts 84°
2026-04-25 20:53 -12.53553 -40.26659 1771 ft 97 kts 72°
2026-04-25 20:53 -12.53206 -40.26042 1697 ft 102 kts 57°
2026-04-25 20:53 -12.52679 -40.25509 1616 ft 109 kts 43°
2026-04-25 20:54 -12.52054 -40.25143 1471 ft 103 kts 33°
2026-04-25 20:54 -12.51371 -40.25096 1368 ft 99 kts 350°
2026-04-25 20:54 -12.50851 -40.25559 1109 ft 97 kts 314°
2026-04-25 20:54 -12.50476 -40.26061 1003 ft 87 kts 303°
2026-04-25 20:55 -12.50203 -40.26588 919 ft 75 kts 298°
2026-04-25 20:55 -12.50094 -40.26815 923 ft 3 kts 246°
2026-04-25 20:55 -12.50107 -40.26828 923 ft 3 kts 213°
2026-04-25 20:55 -12.50135 -40.26841 923 ft 0 kts 199°
2026-04-25 20:56 -12.50137 -40.26841 922 ft 2 kts 199°
2026-04-25 20:56 -12.50182 -40.26843 921 ft 7 kts 185°
2026-04-25 20:56 -12.50203 -40.26828 921 ft 8 kts 121°
2026-04-25 20:57 -12.50195 -40.26806 921 ft 1 kts 26°
2026-04-25 20:57 -12.50188 -40.26805 923 ft 1 kts 332°
2026-04-25 20:57 -12.50186 -40.26810 922 ft 1 kts 300°
2026-04-25 20:57 -12.50185 -40.26811 922 ft 0 kts 298°